When you browse on this site, cookies collect data to enhance your experience and personalize the content and advertising you see.
Visit our Privacy Policy to learn more. By continuing to use the site, you agree to this use of cookies and data.
  • In Lithuania
  • List of Countries
  • For 7 days
  • Water Temperature
  • Satellite Maps
  • Weather Map
  • Weather Widgets
  • user-avatar
    Login

    Hourly Weather Linz

    Today, 20 May, Monday

    Time Temperature Precipitation Wind Pressure Humidity
    00:00 +12°C° 0 mm 1 mps 723 mmHg 89%
    01:00 +11°C° 0 mm 1 mps 723 mmHg 90%
    02:00 +11°C° 0 mm 1 mps 723 mmHg 90%
    03:00 +11°C° 0 mm 1 mps 723 mmHg 90%
    04:00 +11°C° 0 mm 1 mps 723 mmHg 90%
    05:00 +12°C° 0.1 mm 1 mps 723 mmHg 90%
    06:00 +12°C° 0.1 mm 1 mps 723 mmHg 89%
    07:00 +13°C° 0.1 mm 1 mps 722 mmHg 89%
    08:00 +13°C° 0.6 mm 1 mps 722 mmHg 89%
    09:00 +14°C° 0.6 mm 1 mps 722 mmHg 90%
    10:00 +14°C° 0.6 mm 1 mps 723 mmHg 90%
    11:00 +14°C° 0.6 mm 2 mps 722 mmHg 88%
    12:00 +15°C° 0.6 mm 2 mps 722 mmHg 87%
    13:00 +15°C° 0.6 mm 2 mps 722 mmHg 86%
    14:00 +16°C° 0.1 mm 2 mps 722 mmHg 83%
    15:00 +16°C° 0.1 mm 2 mps 722 mmHg 79%
    16:00 +17°C° 0.1 mm 2 mps 723 mmHg 76%
    17:00 +16°C° 0.1 mm 2 mps 723 mmHg 81%
    18:00 +15°C° 0.1 mm 2 mps 723 mmHg 86%
    19:00 +14°C° 0.1 mm 2 mps 723 mmHg 91%
    20:00 +14°C° 0.1 mm 2 mps 723 mmHg 92%
    21:00 +13°C° 0.1 mm 2 mps 723 mmHg 93%
    22:00 +13°C° 0.1 mm 1 mps 723 mmHg 94%
    23:00 +12°C° 0.2 mm 1 mps 724 mmHg 95%

    Tomorrow, 21 May, Tuesday

    Time Temperature Precipitation Wind Pressure Humidity
    00:00 +12°C° 0.2 mm 1 mps 724 mmHg 96%
    01:00 +11°C° 0.2 mm 1 mps 724 mmHg 97%
    02:00 +11°C° 1 mm 1 mps 724 mmHg 97%
    03:00 +11°C° 1 mm 1 mps 724 mmHg 97%
    04:00 +10°C° 1 mm 0 mps 724 mmHg 97%
    05:00 +11°C° 1.1 mm 1 mps 724 mmHg 97%
    06:00 +11°C° 1.1 mm 1 mps 724 mmHg 96%
    07:00 +12°C° 1.1 mm 2 mps 724 mmHg 96%
    08:00 +12°C° 0.2 mm 2 mps 725 mmHg 95%
    09:00 +12°C° 0.2 mm 2 mps 725 mmHg 93%
    10:00 +11°C° 0.2 mm 3 mps 726 mmHg 92%
    11:00 +11°C° 0.6 mm 3 mps 726 mmHg 92%
    12:00 +11°C° 0.6 mm 4 mps 726 mmHg 93%
    13:00 +9°C° 0.6 mm 5 mps 726 mmHg 93%
    14:00 +10°C° 0.3 mm 5 mps 727 mmHg 92%
    15:00 +10°C° 0.3 mm 5 mps 727 mmHg 92%
    16:00 +10°C° 0.3 mm 6 mps 727 mmHg 91%
    17:00 +10°C° 0.1 mm 5 mps 727 mmHg 91%
    18:00 +10°C° 0.1 mm 5 mps 727 mmHg 91%
    19:00 +10°C° 0.1 mm 5 mps 728 mmHg 91%
    20:00 +10°C° 0.2 mm 5 mps 728 mmHg 91%
    21:00 +10°C° 0.2 mm 5 mps 729 mmHg 92%
    22:00 +10°C° 0.2 mm 6 mps 729 mmHg 92%
    23:00 +10°C° 0.2 mm 5 mps 729 mmHg 92%

    Day after tomorrow, 22 May, Wednesday

    Time Temperature Precipitation Wind Pressure Humidity
    00:00 +10°C° 0.2 mm 5 mps 729 mmHg 92%
    01:00 +10°C° 0.2 mm 5 mps 729 mmHg 92%
    02:00 +10°C° 1.9 mm 5 mps 729 mmHg 93%
    03:00 +10°C° 1.9 mm 5 mps 729 mmHg 94%
    04:00 +10°C° 1.9 mm 5 mps 729 mmHg 94%
    05:00 +10°C° 1.4 mm 5 mps 730 mmHg 94%
    06:00 +10°C° 1.4 mm 5 mps 730 mmHg 94%
    07:00 +10°C° 1.4 mm 6 mps 730 mmHg 94%
    08:00 +11°C° 1.1 mm 6 mps 731 mmHg 94%
    09:00 +11°C° 1.1 mm 6 mps 731 mmHg 94%
    10:00 +11°C° 1.1 mm 6 mps 731 mmHg 94%
    11:00 +11°C° 0.8 mm 6 mps 732 mmHg 93%
    12:00 +11°C° 0.8 mm 6 mps 732 mmHg 93%
    13:00 +11°C° 0.8 mm 6 mps 732 mmHg 92%
    14:00 +13°C° 0.1 mm 6 mps 732 mmHg 90%
    15:00 +13°C° 0.1 mm 6 mps 733 mmHg 88%
    16:00 +14°C° 0.1 mm 6 mps 733 mmHg 86%
    17:00 +14°C° 0.1 mm 5 mps 733 mmHg 88%
    18:00 +13°C° 0.1 mm 4 mps 733 mmHg 89%
    19:00 +13°C° 0.1 mm 4 mps 734 mmHg 91%
    20:00 +12°C° 0 mm 3 mps 734 mmHg 92%
    21:00 +12°C° 0 mm 3 mps 735 mmHg 93%
    22:00 +11°C° 0 mm 3 mps 735 mmHg 94%
    23:00 +10°C° 0.1 mm 3 mps 735 mmHg 95%

    23 May, Thursday

    Time Temperature Precipitation Wind Pressure Humidity
    00:00 +10°C° 0.1 mm 2 mps 735 mmHg 95%
    01:00 +10°C° 0.1 mm 2 mps 735 mmHg 96%
    02:00 +9°C° 0 mm 2 mps 735 mmHg 96%
    03:00 +9°C° 0 mm 2 mps 735 mmHg 96%
    04:00 +9°C° 0 mm 2 mps 736 mmHg 96%
    05:00 +10°C° 0 mm 2 mps 736 mmHg 94%
    06:00 +12°C° 0 mm 2 mps 736 mmHg 92%
    07:00 +13°C° 0 mm 2 mps 736 mmHg 90%
    08:00 +14°C° 0 mm 2 mps 736 mmHg 82%
    09:00 +16°C° 0 mm 3 mps 736 mmHg 74%
    10:00 +17°C° 0 mm 3 mps 736 mmHg 66%
    11:00 +18°C° 0 mm 3 mps 735 mmHg 63%
    12:00 +19°C° 0 mm 3 mps 735 mmHg 59%
    13:00 +20°C° 0 mm 3 mps 735 mmHg 56%
    14:00 +20°C° 0 mm 3 mps 734 mmHg 56%
    15:00 +20°C° 0 mm 2 mps 734 mmHg 55%
    16:00 +20°C° 0 mm 2 mps 734 mmHg 55%
    17:00 +19°C° 0 mm 2 mps 734 mmHg 61%
    18:00 +18°C° 0 mm 1 mps 734 mmHg 67%
    19:00 +16°C° 0 mm 1 mps 734 mmHg 73%
    20:00 +15°C° 0 mm 1 mps 734 mmHg 76%
    21:00 +13°C° 0 mm 1 mps 734 mmHg 78%
    22:00 +12°C° 0 mm 1 mps 735 mmHg 81%
    23:00 +12°C° 0 mm 1 mps 734 mmHg 83%

    24 May, Friday

    Time Temperature Precipitation Wind Pressure Humidity
    00:00 +11°C° 0 mm 1 mps 734 mmHg 85%
    01:00 +10°C° 0 mm 1 mps 734 mmHg 86%
    02:00 +10°C° 0 mm 1 mps 734 mmHg 87%
    03:00 +10°C° 0 mm 1 mps 734 mmHg 88%
    04:00 +9°C° 0 mm 1 mps 733 mmHg 89%
    05:00 +10°C° 0 mm 0 mps 733 mmHg 85%
    06:00 +12°C° 0 mm 0 mps 733 mmHg 80%
    07:00 +13°C° 0 mm 0 mps 732 mmHg 75%
    08:00 +16°C° 0 mm 1 mps 732 mmHg 71%
    09:00 +19°C° 0 mm 1 mps 732 mmHg 67%
    10:00 +20°C° 0 mm 1 mps 731 mmHg 62%
    11:00 +21°C° 0 mm 1 mps 731 mmHg 59%
    12:00 +21°C° 0 mm 2 mps 730 mmHg 55%
    13:00 +23°C° 0 mm 2 mps 730 mmHg 51%
    14:00 +23°C° 0 mm 1 mps 729 mmHg 51%
    15:00 +23°C° 0 mm 1 mps 728 mmHg 50%
    16:00 +23°C° 0 mm 1 mps 728 mmHg 50%
    17:00 +21°C° 0 mm 1 mps 728 mmHg 57%
    18:00 +20°C° 0 mm 1 mps 727 mmHg 65%
    19:00 +18°C° 0 mm 1 mps 727 mmHg 73%
    20:00 +16°C° 0.1 mm 1 mps 727 mmHg 77%
    21:00 +15°C° 0.1 mm 2 mps 727 mmHg 82%
    22:00 +14°C° 0.1 mm 2 mps 727 mmHg 87%
    23:00 +13°C° 0.3 mm 3 mps 728 mmHg 89%

    25 May, Saturday

    Time Temperature Precipitation Wind Pressure Humidity
    00:00 +12°C° 0.3 mm 4 mps 728 mmHg 92%
    01:00 +12°C° 0.3 mm 4 mps 728 mmHg 95%
    02:00 +11°C° 0.7 mm 4 mps 728 mmHg 95%
    03:00 +11°C° 0.7 mm 4 mps 728 mmHg 94%
    04:00 +10°C° 0.7 mm 4 mps 728 mmHg 94%
    05:00 +11°C° 0.2 mm 4 mps 728 mmHg 93%
    06:00 +11°C° 0.2 mm 4 mps 729 mmHg 92%
    07:00 +11°C° 0.2 mm 3 mps 729 mmHg 91%
    08:00 +12°C° 0.1 mm 3 mps 729 mmHg 88%
    09:00 +13°C° 0.1 mm 3 mps 729 mmHg 85%
    10:00 +14°C° 0.1 mm 3 mps 729 mmHg 82%
    11:00 +14°C° 0.2 mm 3 mps 729 mmHg 80%
    12:00 +16°C° 0.2 mm 3 mps 729 mmHg 77%
    13:00 +17°C° 0.2 mm 3 mps 729 mmHg 75%
    14:00 +17°C° 0.1 mm 3 mps 729 mmHg 74%
    15:00 +17°C° 0.1 mm 3 mps 729 mmHg 73%
    16:00 +18°C° 0.1 mm 4 mps 729 mmHg 72%
    17:00 +17°C° 0 mm 4 mps 729 mmHg 77%
    18:00 +16°C° 0 mm 3 mps 729 mmHg 81%
    19:00 +14°C° 0 mm 3 mps 730 mmHg 86%
    20:00 +13°C° 0 mm 3 mps 730 mmHg 88%
    21:00 +12°C° 0 mm 3 mps 731 mmHg 91%
    22:00 +11°C° 0 mm 3 mps 731 mmHg 94%
    23:00 +11°C° 0 mm 3 mps 731 mmHg 94%
    Show more